RH
4 4 4 3 3 2 2 2 2 2 2 2 2 3 3 3 3 4 4 4 4 4 4 3 3 3 3 3 2 2 2 2 3 2 3 3 3 3 3 4 4 4 4 4 4 4 4 5 5 5 5 5 5 5 5 5 5 6 6 7 7 6 6 6 6 8 11 14 17 19 19 19 19 17 14 10 8 9 9 9 10 10 10 11 11 11 12 12
4 3 3 3 3 2 2 2 2 2 2 3 3 2 3 3 3 3 3 4 4 4 4 4 4 3 3 3 3 3 2 2 2 3 3 3 3 3 4 4 4 4 4 4 4 4 5 5 5 5 6 6 6 6 6 6 6 6 6 6 6 6 5 6 7 10 13 16 18 19 19 19 18 15 11 9 9 9 9 10 11 11 11 11 12 12 13 13
3 3 2 2 2 2 2 2 2 2 2 2 3 4 4 5 5 6 7 7 8 8 8 7 6 5 4 4 3 3 3 3 3 3 3 3 3 3 4 4 4 4 4 4 5 5 5 5 5 6 6 6 6 6 7 7 8 8 8 7 6 6 6 6 7 9 12 13 14 15 15 15 14 11 9 9 10 10 10 12 12 12 12 12 13 13 13 14
2 2 2 2 2 2 2 2 3 3 5 8 10 12 13 13 13 14 14 13 14 14 14 14 12 11 9 7 5 5 5 4 5 5 5 4 4 4 4 4 4 4 4 5 5 5 5 5 5 6 6 6 6 7 7 7 8 8 8 7 7 7 7 6 6 7 9 10 11 11 10 10 10 10 10 10 11 11 13 14 13 12 12 13 13 14 15 15
4 3 2 3 3 3 4 5 7 11 15 19 21 22 21 21 21 21 21 20 20 19 19 18 16 14 12 10 8 7 7 7 8 9 7 6 5 5 4 4 4 4 5 5 5 5 5 6 6 6 6 6 7 7 7 7 7 8 7 7 7 7 7 7 7 7 8 8 9 9 9 9 10 10 11 12 12 13 14 14 12 11 13 14 14 15 16 16
17 13 10 10 11 13 16 18 20 23 26 27 27 26 25 25 25 26 26 26 26 25 25 23 21 17 14 11 9 8 8 8 9 8 7 6 5 5 5 5 4 4 5 5 5 5 6 6 6 6 7 7 7 7 7 7 7 7 7 8 8 7 7 7 8 8 8 8 9 9 10 10 11 11 12 12 13 13 13 12 11 12 14 15 16 17 17 16
31 28 27 26 28 29 30 31 30 31 31 30 28 28 29 30 30 29 28 27 26 26 27 27 27 25 22 18 13 10 8 8 8 7 7 6 5 4 5 5 5 5 5 5 6 6 6 6 6 7 7 7 7 7 7 8 8 8 8 8 8 8 8 8 8 8 8 9 10 10 11 11 12 12 13 13 13 12 12 11 13 14 16 18 19 19 17 16
37 36 36 35 35 35 34 34 33 34 34 33 32 32 32 32 30 28 27 25 24 25 25 26 28 29 30 25 20 16 11 9 8 8 8 7 6 5 5 5 5 5 5 6 6 6 7 7 7 7 7 7 8 8 8 8 8 8 8 8 9 9 9 9 9 9 10 10 11 12 12 12 12 13 13 13 13 13 13 13 15 16 18 19 19 19 18 17
42 39 39 39 37 37 35 34 34 35 36 35 34 33 32 31 28 26 25 25 25 25 25 27 29 30 31 28 25 20 14 13 11 9 9 8 8 7 6 6 6 6 6 6 6 7 7 7 8 8 8 8 8 8 8 9 9 9 9 9 9 9 10 10 10 10 11 11 11 12 12 13 13 14 15 15 15 16 16 16 17 18 19 19 19 18 19 18
46 42 38 38 37 37 36 35 34 33 35 35 33 32 32 31 30 28 27 27 28 28 29 30 30 31 31 29 27 21 16 17 15 11 8 8 8 8 7 6 6 7 6 7 7 7 7 8 8 8 9 8 9 9 9 9 9 9 9 9 9 10 10 10 10 10 11 11 11 12 13 14 14 14 16 17 17 18 19 19 19 18 18 19 19 19 19 19
39 39 38 36 35 34 34 33 32 31 32 35 36 36 36 35 33 31 30 30 30 32 33 33 33 33 32 30 29 22 18 18 14 9 7 6 7 7 7 7 7 7 7 7 7 7 8 8 9 9 10 9 9 9 9 9 9 9 9 9 9 9 10 9 9 10 11 12 12 13 14 14 15 16 17 17 18 19 19 19 18 18 18 19 19 19 19 20
28 29 29 29 28 27 27 27 28 30 34 38 40 40 40 38 35 33 33 32 33 34 36 36 36 35 34 32 28 23 20 17 11 7 6 5 6 6 7 7 7 7 7 7 7 8 8 9 10 10 10 10 11 10 10 10 9 9 9 9 9 9 9 9 9 11 12 14 14 16 16 15 16 16 16 16 18 20 20 20 19 19 19 20 21 21 21 21
35 33 32 31 30 29 28 27 27 29 34 37 37 37 37 36 35 35 35 35 34 35 36 36 37 37 35 30 25 22 20 16 10 6 5 6 6 6 7 7 8 8 8 8 8 8 8 9 10 11 11 11 11 11 10 10 10 10 9 10 10 9 9 9 10 13 15 16 17 18 18 17 15 16 17 18 19 21 22 22 21 21 22 23 24 25 24 24
41 40 39 38 38 38 38 37 36 35 35 36 37 37 37 37 36 35 35 35 36 36 36 36 37 36 34 30 27 24 21 17 11 6 6 6 6 7 7 8 9 9 9 9 9 9 9 10 11 12 12 11 11 10 10 10 10 10 10 10 10 10 11 12 14 16 17 18 18 18 18 17 15 15 18 19 21 22 24 24 24 24 24 26 29 28 26 26
36 35 35 35 36 37 38 40 41 42 42 43 44 44 44 44 42 38 34 32 33 35 36 35 35 35 34 32 28 24 20 17 11 7 7 7 7 7 8 9 9 10 10 9 10 10 10 10 11 12 12 12 11 11 10 10 10 10 11 11 11 12 13 15 16 15 15 17 18 18 17 17 15 15 17 19 21 23 25 26 26 26 27 30 32 30 28 29
32 32 34 35 36 38 39 40 40 41 42 42 44 44 46 46 45 43 38 33 32 33 34 34 35 36 34 30 26 23 20 15 11 8 8 8 8 8 9 10 10 10 11 11 11 11 11 11 12 12 12 12 11 11 11 11 11 12 13 14 14 14 15 16 16 14 15 16 17 17 17 17 16 15 17 19 22 25 28 29 29 29 31 33 32 29 29 31
33 35 37 40 43 45 45 45 43 42 42 42 43 42 42 42 41 41 41 40 38 37 37 36 35 35 31 27 25 23 18 14 12 10 9 9 9 10 10 10 10 10 11 11 12 12 12 12 12 12 12 12 13 13 14 14 13 14 15 16 16 16 17 16 16 16 16 17 17 17 17 16 16 17 17 20 23 27 31 33 33 34 34 32 29 30 32 34
36 38 42 44 45 44 42 42 42 43 43 43 43 42 40 40 38 36 35 36 36 37 37 34 33 31 27 26 25 20 15 12 12 11 10 10 10 10 10 10 11 11 11 11 12 12 12 12 12 13 13 14 15 15 16 16 14 15 16 17 19 19 20 20 20 20 18 17 17 17 16 16 17 18 18 20 23 27 30 33 34 32 31 29 30 33 35 36
36 39 41 40 38 39 39 38 38 40 42 43 44 43 42 40 36 33 31 30 31 32 33 33 34 33 30 30 26 18 12 10 10 9 9 9 9 9 9 10 11 11 11 11 11 11 12 12 12 13 13 14 16 17 17 16 16 17 18 20 22 24 24 24 23 22 19 17 16 16 17 17 19 20 20 23 25 27 29 30 31 30 30 32 34 36 37 38
36 37 36 37 39 41 38 33 32 33 35 37 39 42 41 38 36 35 33 31 31 33 35 36 36 34 33 30 22 15 12 10 10 9 9 8 8 8 8 9 10 11 11 11 12 12 13 13 13 12 13 14 15 16 16 17 19 20 21 23 26 27 26 24 23 20 17 17 17 18 20 21 23 22 22 24 26 29 30 30 31 31 33 36 37 38 39 39
35 37 39 41 41 37 31 29 29 30 32 34 36 39 38 37 36 37 37 35 35 36 35 34 32 30 28 22 16 13 12 11 10 10 9 9 8 8 9 9 10 11 11 12 13 13 13 13 12 12 13 14 15 16 17 19 20 20 21 23 25 26 24 21 20 18 18 20 21 21 23 23 24 24 24 25 28 31 32 33 34 35 37 39 39 40 40 40
40 42 40 36 31 27 28 29 29 29 30 32 33 31 28 28 29 33 38 39 36 34 32 29 26 23 20 16 14 13 13 12 11 11 10 10 10 10 10 10 11 11 11 12 12 13 13 12 13 14 14 16 17 18 18 19 19 19 20 22 23 22 20 19 20 20 21 23 22 22 23 23 24 24 25 27 30 33 35 37 39 40 41 41 41 41 41 42
33 34 29 26 26 28 29 27 24 22 21 21 20 16 14 15 15 20 32 36 33 30 27 22 19 18 16 15 15 14 13 12 11 12 12 12 12 12 12 12 12 13 13 13 13 13 13 13 15 15 15 16 17 17 18 19 19 20 21 21 21 19 20 21 22 22 22 23 23 23 24 26 26 26 27 29 32 35 37 40 44 44 44 44 43 43 44 44
22 22 22 23 24 26 26 23 20 18 15 13 12 11 10 11 8 11 22 26 25 24 21 17 17 18 19 16 15 14 13 11 11 12 11 11 12 13 13 13 13 13 13 13 13 13 13 13 13 13 14 15 16 18 19 21 22 21 21 20 20 21 23 23 23 23 23 23 24 25 28 29 28 28 29 31 33 35 38 42 46 47 46 46 46 45 46 46
18 17 17 16 16 17 19 19 17 16 14 12 11 10 10 10 8 12 19 18 17 20 19 17 18 19 19 15 13 12 11 11 11 10 10 11 12 12 12 12 12 12 12 12 12 12 12 13 13 14 16 17 18 21 22 23 22 21 21 21 23 23 22 23 23 25 26 26 27 29 35 37 32 31 32 32 35 38 40 44 47 49 49 49 49 48 49 49
19 18 16 12 13 14 14 15 15 13 12 10 10 10 10 8 7 13 19 16 16 19 18 19 19 18 17 12 9 9 10 11 10 10 11 12 11 11 11 11 11 11 11 11 11 13 14 16 17 18 18 18 20 21 22 23 23 23 23 23 23 22 23 24 25 28 29 29 31 32 39 41 37 37 38 37 40 43 44 47 49 52 52 52 52 52 52 52
21 19 15 11 11 11 12 12 12 11 10 10 10 10 9 6 6 15 19 18 19 19 18 19 18 16 13 10 9 9 10 11 11 12 12 11 11 11 11 11 11 12 12 13 14 15 18 18 18 18 18 18 19 19 21 24 24 25 24 23 23 22 24 25 25 28 30 30 33 33 38 44 41 42 44 42 46 49 49 51 52 54 56 55 55 56 56 56
16 15 14 13 11 10 11 10 10 10 10 11 10 8 7 5 7 16 20 21 22 22 21 20 16 14 11 9 10 11 11 11 12 14 12 11 12 12 12 12 13 14 14 15 15 16 18 17 17 18 19 20 21 22 24 25 25 23 23 23 24 24 26 26 26 29 31 37 38 32 37 49 49 43 44 48 52 53 52 52 54 55 57 59 59 59 60 60
9 10 11 12 12 11 12 11 11 11 11 10 8 6 6 5 7 16 22 23 23 22 21 17 13 11 10 11 13 13 12 12 12 13 12 12 12 12 13 13 15 16 15 16 17 17 17 16 16 19 22 24 23 24 25 24 23 23 24 25 24 26 25 24 28 31 37 48 45 36 40 51 52 43 41 49 52 51 52 53 55 56 57 60 61 62 62 62
14 15 15 14 14 13 12 11 10 9 8 6 5 5 6 6 9 16 23 23 20 17 16 13 10 10 10 13 14 13 12 12 13 14 13 13 13 13 14 16 17 16 17 18 16 16 17 14 17 22 23 22 22 24 25 23 24 24 25 26 26 27 25 28 35 36 47 60 48 39 43 48 54 47 39 44 47 47 51 53 54 56 58 61 62 62 63 62
27 26 24 20 18 14 11 10 8 6 6 5 6 6 6 7 11 16 21 20 16 14 12 10 10 10 11 13 13 13 13 13 14 14 14 14 15 15 16 18 17 15 18 18 16 17 17 17 22 24 21 21 23 26 25 23 25 26 28 28 27 28 25 30 38 36 52 65 47 39 45 48 56 51 42 47 49 48 54 57 58 58 58 60 61 63 63 64
31 28 24 18 13 10 8 8 6 6 6 6 7 7 6 7 11 15 16 14 12 12 10 9 10 11 12 14 14 13 14 14 15 14 14 15 17 17 18 18 18 18 20 20 18 18 17 21 27 24 20 23 26 25 23 25 28 28 28 28 32 40 40 43 51 47 51 54 40 38 45 47 50 46 45 51 51 53 60 62 63 64 64 64 63 65 66 68
28 25 20 12 6 7 7 6 7 7 7 7 7 8 7 8 12 14 13 11 11 11 11 11 12 13 14 15 15 15 14 15 15 16 16 18 20 21 20 20 22 23 24 23 22 19 18 24 27 22 21 24 25 25 25 28 29 27 30 31 35 48 58 67 71 57 44 40 34 38 45 45 45 43 44 49 51 58 63 62 64 66 68 69 68 70 72 74
25 23 16 8 5 6 6 6 8 8 8 8 8 8 8 11 14 13 11 11 11 12 12 13 14 15 16 16 16 16 15 16 17 17 18 19 22 23 22 23 24 26 25 24 23 23 24 25 22 21 21 23 26 27 28 29 28 28 32 34 34 38 46 58 63 52 45 47 42 40 45 47 48 47 47 47 50 55 58 59 63 66 69 71 72 74 75 78
23 21 13 6 5 6 7 8 8 8 8 8 8 8 9 12 13 11 10 11 12 14 14 15 16 16 16 17 17 17 17 18 18 19 19 20 23 24 24 24 24 24 25 24 23 25 27 22 18 19 20 23 27 27 27 28 28 31 33 34 37 39 38 43 50 46 49 62 58 47 48 49 50 52 50 49 51 53 56 59 62 66 69 69 72 75 78 82
21 19 11 5 6 7 8 8 7 8 8 7 7 8 9 11 11 10 11 13 14 15 15 16 16 16 16 17 18 19 20 20 20 20 20 21 24 25 25 25 23 23 23 23 23 26 28 20 14 17 19 23 26 25 26 27 28 33 35 35 39 42 42 45 48 44 50 66 62 46 47 50 53 58 55 52 54 54 57 60 62 65 67 70 75 79 81 85
20 17 9 6 7 8 8 8 7 7 7 6 6 7 8 10 10 12 14 15 16 16 15 16 16 17 17 17 19 21 22 21 21 22 21 22 24 24 25 25 22 22 22 22 23 27 30 22 13 16 20 22 26 26 26 28 32 36 37 39 40 42 45 46 50 56 66 74 63 46 47 51 56 62 59 54 56 57 59 62 63 65 68 72 77 81 84 88
19 13 7 7 7 7 7 7 6 6 5 5 6 8 10 11 13 15 16 16 16 16 16 16 17 18 19 20 21 22 22 22 22 22 21 22 23 24 26 24 21 21 21 21 23 26 31 27 18 18 22 25 27 27 28 31 34 36 38 41 42 44 48 47 50 61 71 78 75 59 48 46 49 53 54 55 58 60 61 63 64 67 69 73 77 81 85 88
15 10 7 7 7 6 6 5 5 5 5 6 8 10 12 14 15 16 16 16 17 17 17 17 18 20 21 23 24 23 23 23 23 22 21 21 22 24 26 23 20 21 21 22 25 26 31 34 27 22 25 28 29 29 31 32 33 37 41 43 43 45 50 49 49 54 61 74 84 76 61 52 49 51 54 57 58 58 61 63 66 68 70 73 76 78 83 88
10 7 7 7 5 5 5 5 5 6 7 9 11 13 14 15 16 16 17 17 17 17 18 19 20 22 24 25 25 23 21 22 23 21 21 22 22 24 25 22 19 22 23 25 27 28 32 37 33 27 28 31 32 33 33 33 36 40 41 43 44 46 49 53 52 50 55 68 82 91 84 61 51 56 58 56 56 58 61 64 65 68 70 72 74 78 84 90
7 7 7 5 4 5 5 6 7 9 11 11 12 14 15 16 16 17 18 18 18 19 20 21 23 24 25 25 24 21 20 21 22 21 22 23 23 23 23 22 23 26 28 28 29 30 34 39 38 33 31 32 33 34 35 38 41 42 43 45 47 49 52 61 67 57 52 61 70 85 88 64 52 60 57 52 56 60 64 69 72 74 73 71 71 76 82 87
7 7 6 4 4 6 7 9 10 11 12 12 14 15 15 17 17 17 18 19 20 21 21 23 24 24 25 23 21 21 19 20 22 21 23 24 23 23 23 25 28 30 31 31 31 34 38 42 42 37 36 36 36 36 38 41 42 41 45 48 50 54 53 62 73 63 55 61 60 69 81 68 57 61 54 48 52 58 66 72 70 67 65 65 68 74 83 89
7 5 4 4 6 8 10 11 12 12 13 14 15 16 17 18 18 18 20 21 22 23 23 25 25 24 23 21 20 21 21 21 23 22 23 24 24 24 25 28 32 33 34 35 35 38 42 44 44 41 38 36 35 37 40 42 43 43 47 50 51 56 56 60 67 63 63 67 60 69 82 65 56 60 49 40 44 51 57 55 51 51 53 57 64 69 76 77
5 4 5 7 8 10 12 12 13 14 14 15 16 17 18 18 19 19 21 22 23 24 24 25 25 23 22 21 21 22 22 23 23 23 24 25 24 25 28 33 37 37 38 37 38 41 43 43 45 48 51 50 46 45 43 43 45 45 47 50 52 56 58 59 62 64 67 64 59 74 81 64 59 58 40 34 43 45 46 47 49 54 56 58 61 62 62 62
5 6 9 10 10 12 12 12 13 14 14 16 17 17 17 18 19 20 21 23 23 24 25 25 24 23 22 22 22 23 23 24 25 25 25 26 26 29 34 39 41 41 40 40 41 42 42 41 45 52 60 64 60 55 51 50 50 47 45 49 53 56 57 58 63 67 67 63 60 68 70 62 60 50 35 38 46 44 47 54 56 57 56 57 60 60 61 61
8 10 11 12 12 13 12 12 13 13 14 15 15 16 17 18 19 20 21 22 24 24 25 24 23 23 22 23 23 23 24 25 26 26 27 29 31 35 40 42 43 42 42 42 42 42 42 42 44 48 51 54 53 51 51 52 51 48 48 51 53 55 58 61 68 70 68 68 65 62 66 67 56 42 39 44 47 49 55 58 56 53 54 58 60 58 56 52
11 11 12 12 13 13 13 13 13 12 12 14 14 16 18 18 19 20 21 23 23 23 23 23 23 23 23 24 24 25 25 26 27 28 30 32 35 39 43 43 43 44 44 43 43 44 45 44 45 46 45 47 49 48 48 50 50 50 53 54 53 55 57 58 63 68 71 74 71 67 72 69 51 42 47 49 51 56 59 60 57 53 53 56 54 47 43 41
11 12 12 12 13 13 12 12 12 12 13 14 16 17 18 18 19 20 21 22 22 22 22 22 23 24 25 26 26 26 26 25 26 27 30 32 33 37 41 42 43 45 45 45 45 45 46 45 46 46 41 42 47 47 47 49 49 52 53 49 49 53 51 49 55 65 72 77 77 75 71 60 49 48 52 53 56 63 64 63 59 52 48 46 40 36 37 41
12 12 12 12 12 12 12 11 12 13 14 15 17 17 18 18 18 20 21 22 22 22 22 23 25 26 26 27 27 27 27 27 26 25 26 28 31 35 38 40 44 46 45 46 46 47 48 47 49 49 40 36 42 42 42 45 43 42 43 44 47 50 48 50 58 64 68 70 71 70 64 56 53 53 55 59 65 69 68 63 54 46 40 35 33 37 43 50
11 11 11 12 11 11 12 12 13 15 15 16 17 18 19 19 19 21 21 21 22 22 23 25 25 26 26 26 26 26 26 28 28 27 27 29 32 36 39 41 44 46 46 47 47 47 48 47 51 53 41 32 35 35 34 37 33 30 35 41 44 47 51 58 66 69 69 68 66 65 62 57 56 57 61 67 71 72 68 57 44 38 35 33 38 47 55 64
10 9 10 12 12 12 13 13 15 16 16 17 18 18 19 19 20 21 21 22 23 23 24 24 24 24 24 23 24 23 23 24 25 27 29 30 33 38 42 43 45 46 46 47 47 47 50 50 52 56 47 35 33 31 27 26 25 27 35 39 40 47 56 64 72 75 75 71 67 65 61 58 60 64 67 72 76 72 60 45 35 33 36 41 50 60 70 76
10 10 11 12 12 13 14 15 16 16 16 17 18 18 19 20 20 21 21 22 22 22 23 22 21 21 21 21 22 21 21 21 21 24 26 28 32 37 42 45 46 46 46 47 48 48 52 52 52 58 54 39 32 32 26 21 24 30 36 40 44 50 56 62 71 76 76 72 66 62 61 63 67 70 74 79 75 61 45 36 34 36 43 54 67 77 81 75
Wind_Speed
7 7 7 8 8 9 9 8 8 7 7 6 6 5 5 5 5 5 5 5 5 4 4 4 4 5 5 5 6 5 6 6 6 7 7 6 6 7 7 7 6 6 6 7 7 8 8 8 9 9 10 11 11 11 12 13 14 15 16 19 22 22 21 20 19 19 19 18 17 17 17 18 18 19 20 20 19 18 18 18 18 18 18 18 19 19 19 19
7 7 7 7 8 9 9 8 7 7 6 6 5 5 6 6 6 6 6 6 6 5 5 5 5 6 6 7 7 7 7 7 7 7 7 7 8 8 8 8 8 8 8 8 8 9 9 9 9 10 10 11 11 11 12 13 14 15 17 20 21 21 20 19 19 19 19 19 19 18 19 19 20 21 21 21 19 19 19 18 18 19 19 19 19 19 19 18
7 7 8 8 8 7 7 7 6 6 6 5 5 6 6 6 7 7 7 7 8 7 7 7 7 7 7 8 9 9 8 8 9 8 8 8 8 9 9 8 9 9 9 9 9 10 10 10 10 10 10 11 11 12 13 13 15 16 18 20 20 19 20 19 19 19 19 20 19 20 20 20 21 22 22 20 19 19 17 17 19 20 20 20 19 19 18 17
8 8 8 7 7 6 6 6 5 5 5 5 5 5 6 6 7 7 8 8 9 9 9 9 9 9 10 10 10 10 10 10 10 9 9 9 9 9 10 10 10 11 10 10 10 11 11 11 11 11 11 11 11 12 13 13 15 17 18 19 19 18 19 19 19 19 20 20 20 21 21 21 21 21 21 20 20 17 15 18 21 20 20 20 19 18 18 18
7 7 7 7 6 6 5 4 4 4 4 4 5 5 6 6 7 7 8 9 9 10 11 11 11 11 12 12 12 11 11 10 10 10 11 11 11 11 11 11 12 12 12 12 12 12 12 12 12 11 11 11 12 12 13 13 15 17 18 18 19 19 19 19 19 20 20 20 20 21 21 21 21 21 20 20 19 15 16 20 22 20 20 19 18 18 18 19
6 6 6 5 5 4 3 3 2 3 3 4 4 5 6 7 7 8 9 10 10 11 11 12 12 12 13 14 14 14 13 11 11 13 14 14 13 13 13 13 14 13 13 13 13 13 13 13 13 12 12 12 12 13 13 14 15 17 17 18 19 19 20 20 20 20 20 20 20 20 21 20 20 20 19 18 17 17 20 22 21 20 18 18 18 18 19 20
4 4 4 3 3 2 2 1 1 2 3 3 4 4 5 6 7 8 9 10 11 11 12 13 13 13 14 14 15 15 15 14 15 15 15 15 14 14 13 14 15 15 15 14 14 13 13 14 14 13 13 13 13 14 14 15 16 17 18 18 19 20 20 20 20 20 20 20 20 20 20 20 20 19 18 17 18 20 21 20 18 17 16 17 18 19 21 22
3 2 1 1 0 0 1 2 2 3 3 3 4 4 5 6 7 8 9 10 11 12 13 14 14 15 15 16 16 16 17 17 17 17 16 15 15 14 14 14 16 16 16 15 15 14 13 14 14 14 14 14 14 14 15 16 16 18 18 18 19 20 20 19 19 19 20 20 20 20 19 20 20 19 18 19 20 21 19 17 15 16 17 18 20 21 23 23
2 2 2 2 2 3 3 3 3 4 5 5 6 6 7 7 8 8 9 10 11 12 13 14 14 15 16 17 17 17 18 18 18 18 18 17 16 16 15 15 16 17 17 16 16 15 14 14 14 15 15 14 15 15 15 16 17 17 17 18 19 20 19 19 19 20 20 20 20 20 19 20 20 19 19 20 21 19 17 16 16 17 19 20 22 23 24 24
3 3 3 3 4 5 5 6 6 6 7 8 9 9 9 9 9 10 10 11 11 12 12 13 14 15 16 17 19 18 18 18 18 18 18 18 17 16 16 16 16 17 18 17 16 15 14 14 14 15 15 15 16 16 16 17 18 18 18 18 19 19 19 19 20 21 21 20 21 20 19 21 21 21 21 21 21 19 17 18 18 20 21 22 23 24 24 25
4 5 5 6 6 7 8 8 9 9 9 10 10 10 10 11 12 12 12 12 12 12 13 13 15 16 16 17 19 19 19 19 19 18 17 17 16 16 16 15 16 17 18 18 17 16 14 13 14 15 15 16 16 16 17 18 18 19 19 19 19 19 19 19 20 21 21 21 21 20 20 21 22 23 23 23 22 21 20 21 22 22 22 23 23 24 25 26
5 7 7 8 8 9 10 10 10 10 10 11 11 12 12 13 13 14 14 14 14 14 14 15 16 17 17 18 19 20 20 20 19 17 16 16 16 16 16 15 16 17 18 17 17 16 15 14 13 14 15 16 16 15 16 17 17 18 19 19 19 19 20 20 20 21 21 21 20 20 21 20 21 23 22 20 19 20 21 22 24 24 24 24 25 26 27 27
7 8 9 9 10 11 11 11 12 12 12 12 13 13 14 14 15 16 16 16 16 16 16 16 17 18 18 18 19 20 20 20 19 17 16 16 16 16 16 16 16 16 17 16 16 15 16 15 14 14 16 17 17 17 17 17 17 18 18 19 19 20 20 20 19 18 19 19 18 18 19 18 20 23 21 17 18 20 22 24 25 25 25 26 27 28 28 28
7 8 9 10 11 11 12 13 13 14 14 14 15 15 15 15 16 16 17 17 17 17 18 18 19 20 20 20 21 21 20 19 18 17 16 16 16 16 16 16 15 15 16 15 15 15 15 15 15 15 16 17 18 18 18 18 19 19 19 20 20 20 19 17 15 15 16 17 17 18 22 21 20 23 21 19 21 23 24 25 26 27 26 28 30 31 30 30
7 8 9 10 10 11 12 12 13 13 14 14 15 15 15 15 16 16 17 17 18 18 19 19 20 20 20 21 21 20 19 18 17 16 15 16 17 16 16 16 15 14 14 15 14 14 15 15 15 16 16 17 17 18 19 19 20 20 20 20 20 19 19 16 14 15 16 17 19 19 21 19 17 21 22 22 23 23 24 25 27 28 28 31 32 32 31 30
8 9 9 9 10 10 10 10 11 11 12 12 13 13 14 15 15 15 16 16 17 18 19 19 20 21 21 21 20 18 17 17 16 15 15 15 16 15 15 15 14 13 13 13 13 14 14 15 16 16 16 16 17 18 18 20 21 20 20 21 20 20 19 17 15 17 18 19 21 21 21 21 20 24 26 26 26 24 24 25 27 29 31 33 34 33 31 30
9 9 9 9 9 9 9 10 10 10 10 11 12 13 13 14 15 15 16 17 17 18 19 19 20 21 20 18 17 17 17 17 16 15 15 14 14 15 15 15 15 13 13 13 13 13 14 15 16 16 17 17 17 16 17 20 20 18 19 20 20 19 19 19 18 20 21 21 22 23 26 26 25 28 29 28 28 27 26 27 28 30 32 34 33 31 30 30
10 10 9 8 8 8 9 10 10 11 11 11 13 13 13 14 15 15 15 16 16 17 18 17 18 19 17 17 19 20 19 19 18 17 16 15 15 15 15 15 15 14 14 14 14 14 15 16 16 17 17 17 17 17 18 20 20 20 21 22 22 22 22 22 22 24 24 24 24 25 29 28 26 28 30 29 28 28 28 28 29 31 32 32 31 29 29 29
9 8 7 7 7 8 8 10 11 12 12 12 12 13 14 14 14 14 14 15 15 16 16 16 17 19 19 20 23 22 20 19 18 18 18 17 16 16 16 15 15 15 15 15 15 15 15 16 17 18 18 17 18 19 20 22 23 23 23 24 24 25 25 23 24 25 25 25 26 26 28 27 24 24 27 28 28 27 28 29 30 32 31 30 28 27 28 29
7 6 6 6 7 8 9 11 11 12 12 13 13 13 14 15 14 15 14 14 15 15 16 17 18 20 20 21 21 20 19 18 18 18 17 17 17 17 16 16 16 16 16 16 16 16 16 17 18 18 18 19 20 22 22 23 22 21 21 22 24 26 27 24 24 25 24 25 25 22 23 23 22 23 25 28 29 29 30 31 31 30 28 26 26 27 28 28
5 5 6 7 8 9 9 10 11 11 12 12 12 13 13 15 15 16 15 14 15 15 17 18 19 19 19 18 17 16 15 15 16 16 16 16 16 17 16 16 16 16 16 16 17 17 17 19 19 19 20 20 20 20 20 20 21 21 21 22 24 25 26 25 23 23 20 20 21 20 21 24 23 24 27 29 30 31 30 29 27 26 24 24 25 27 27 27
4 5 6 7 8 8 8 9 9 10 11 11 10 11 12 14 15 17 17 16 16 16 17 18 17 16 14 13 12 12 12 13 14 15 15 15 15 15 15 15 16 16 16 16 17 18 19 19 18 18 18 18 18 18 19 21 22 22 21 22 23 23 23 22 20 18 17 18 20 20 23 26 27 27 28 29 29 28 26 24 22 21 21 23 25 26 26 26
5 5 5 5 6 6 7 8 9 10 11 11 11 11 13 14 14 15 15 15 16 16 15 14 12 11 10 10 10 10 12 14 14 13 13 13 14 14 14 15 15 15 15 16 16 17 17 16 16 17 18 19 19 20 20 20 20 19 19 20 21 20 19 18 17 17 19 20 22 23 25 28 29 29 28 27 25 24 22 21 19 19 21 23 25 26 25 25
3 3 4 5 6 6 7 8 9 10 11 11 10 12 15 15 15 14 13 13 13 12 11 9 9 8 8 10 11 12 13 14 14 12 13 14 14 13 13 13 14 14 14 15 15 15 16 16 17 18 18 18 19 18 18 19 19 18 18 18 18 16 15 16 19 20 22 23 21 20 20 23 25 23 22 21 20 20 19 19 19 20 22 23 25 26 25 25
2 4 5 6 6 7 7 8 9 10 11 11 11 14 16 16 16 14 13 12 7 6 9 9 9 8 9 12 13 14 14 14 13 14 14 14 13 12 12 13 13 13 13 14 14 14 14 15 15 15 15 16 16 16 16 17 18 16 15 15 14 14 15 17 20 21 21 19 16 14 10 12 16 15 16 19 18 19 19 20 21 21 23 24 25 25 25 25
4 6 6 7 7 7 8 8 9 10 11 12 13 16 17 17 17 14 12 8 1 5 10 9 9 10 12 15 15 15 14 12 14 14 13 12 12 13 12 13 13 13 14 14 14 13 12 12 13 13 14 15 15 15 15 15 15 14 12 12 13 16 18 18 20 19 18 15 16 16 10 11 17 17 18 20 20 20 20 21 22 23 24 24 25 25 26 26
5 6 6 7 7 8 8 9 10 11 12 13 15 17 17 17 16 13 9 4 2 8 10 9 11 13 15 17 17 16 12 11 13 12 12 13 14 14 13 13 14 14 14 14 13 11 11 11 12 14 15 15 15 14 13 12 12 12 11 13 16 18 18 19 21 21 22 22 23 22 16 15 17 18 19 20 20 20 22 23 24 25 25 26 26 26 27 28
6 6 6 7 8 9 10 11 12 13 14 15 17 17 17 17 15 12 6 2 5 10 9 10 13 15 17 17 16 15 12 12 11 11 13 14 14 14 13 13 14 13 13 13 11 10 11 11 13 14 14 13 12 10 9 9 11 13 15 16 17 18 20 23 24 24 23 21 19 16 13 11 11 13 15 17 21 22 23 25 25 26 26 27 28 28 29 29
5 6 7 8 9 10 12 13 14 15 16 17 17 16 17 16 14 10 3 1 6 10 10 12 14 15 17 15 13 13 12 13 12 13 15 14 14 13 12 12 12 12 11 9 9 9 11 13 14 12 10 10 10 9 8 10 14 16 16 16 18 21 24 24 22 19 15 11 10 10 8 8 6 11 13 15 20 22 24 26 27 28 29 29 29 29 30 30
7 8 9 9 11 12 13 14 14 15 16 16 16 16 16 15 12 6 1 2 9 9 10 14 15 16 15 12 11 11 13 14 13 14 15 14 14 13 12 11 10 10 7 6 8 10 12 13 11 7 9 11 11 9 10 14 17 15 14 18 22 23 21 18 14 10 6 4 5 3 6 8 5 7 10 12 16 18 22 26 27 29 30 30 31 31 32 32
9 10 11 12 12 12 13 13 14 14 14 15 15 16 15 13 9 3 1 6 10 9 11 14 14 15 13 11 11 12 14 14 12 13 14 13 13 12 10 9 10 8 5 6 10 11 12 10 6 5 11 14 11 9 13 17 14 11 17 22 21 17 12 9 6 2 1 2 2 1 2 8 7 6 8 11 15 17 19 23 27 29 30 31 32 32 33 33
11 13 14 14 13 12 12 11 12 13 13 15 15 14 13 8 5 4 4 8 10 11 14 15 14 14 13 12 13 14 15 13 13 14 14 14 13 12 11 12 13 12 9 13 15 13 12 7 3 7 14 14 11 13 16 13 11 15 21 19 11 8 6 4 2 1 3 4 2 2 3 6 12 14 13 14 17 18 18 19 23 28 31 32 33 33 34 33
13 15 15 15 13 11 11 11 12 12 13 13 12 12 10 4 3 5 7 9 10 12 14 15 14 13 12 12 13 15 14 12 14 15 14 13 12 13 14 14 16 16 15 16 17 16 13 5 4 11 16 14 13 16 14 10 14 20 18 10 6 4 4 3 3 2 5 5 4 7 7 7 11 12 12 14 16 18 20 22 24 27 30 32 34 34 34 34
14 16 15 14 12 12 12 12 12 12 11 11 10 10 7 3 4 7 8 10 11 12 14 14 13 12 12 12 13 15 14 13 14 14 13 12 10 13 14 12 15 18 17 15 15 16 11 5 9 15 17 15 14 13 11 14 20 16 9 7 8 4 2 4 3 2 5 7 9 11 8 5 7 10 13 15 16 17 20 23 25 26 28 31 33 34 34 34
15 16 15 14 12 12 12 12 12 12 11 10 10 8 6 4 5 8 9 11 11 12 13 13 11 10 11 12 13 15 15 14 14 12 12 11 11 14 13 12 16 19 18 16 15 13 8 9 14 18 17 14 12 12 14 18 17 9 8 10 11 8 6 8 8 8 9 8 7 6 6 7 11 14 17 18 18 18 18 20 23 25 28 30 32 34 34 34
15 15 15 13 12 12 12 12 12 11 10 10 8 7 6 5 7 8 9 11 12 13 13 11 10 10 11 11 13 15 15 14 13 11 12 12 11 14 13 13 17 19 18 18 15 11 9 13 17 16 14 11 11 14 17 18 13 9 12 13 12 11 10 10 10 10 7 5 4 3 5 9 10 11 15 16 17 17 17 19 22 24 27 29 32 33 33 34
14 15 14 13 12 12 12 12 11 10 10 9 7 6 6 6 7 8 10 12 12 13 13 12 11 12 13 13 13 15 14 13 11 11 12 11 11 13 12 13 18 19 18 18 17 13 13 18 19 13 10 11 14 17 18 16 12 11 13 14 13 10 7 5 4 5 3 2 4 4 5 8 6 8 14 15 16 17 18 20 22 24 27 29 32 33 34 35
13 14 13 12 12 12 12 11 10 10 9 8 7 6 7 7 8 9 10 11 11 12 13 13 12 12 14 14 14 14 14 11 11 12 12 11 12 14 12 13 18 19 18 19 18 16 15 18 17 13 11 15 17 18 17 14 13 14 13 12 10 6 4 3 3 3 2 2 4 4 4 7 8 9 13 15 16 18 19 21 23 25 28 30 33 34 36 37
12 13 12 12 12 11 11 10 9 9 9 8 7 6 7 8 9 10 11 11 11 11 12 11 11 11 12 13 13 14 14 11 11 12 11 11 15 15 12 15 19 19 19 21 19 18 15 12 11 14 16 18 18 17 16 16 15 13 9 8 8 5 5 6 4 3 2 2 3 4 3 3 4 8 14 17 19 20 21 23 24 27 29 31 34 37 38 40
11 11 11 11 11 10 10 9 9 9 8 7 7 8 8 9 9 10 10 11 11 11 11 11 11 11 12 13 13 14 14 11 10 12 11 13 16 15 13 17 20 20 20 21 19 19 15 9 12 18 20 18 18 17 17 15 10 8 8 9 9 7 6 8 8 8 6 3 1 2 3 3 5 12 16 18 21 22 23 24 26 28 31 33 36 39 41 42
10 10 10 11 10 9 9 9 9 9 8 8 8 9 9 9 10 10 10 11 11 11 11 11 11 12 12 13 13 14 14 11 10 13 12 14 17 15 15 19 21 21 21 21 20 18 13 11 16 21 21 19 17 14 12 8 5 7 10 10 9 9 10 8 6 7 6 5 4 2 4 10 13 14 17 22 25 24 25 26 27 30 32 36 39 41 44 46
9 9 10 10 9 9 10 9 9 9 9 10 10 9 10 9 10 10 10 11 11 11 11 10 12 12 12 13 13 14 16 12 11 14 14 14 17 17 18 20 21 22 23 22 20 16 14 13 16 19 20 17 12 8 5 4 6 11 12 11 11 12 12 7 4 6 7 8 10 5 4 10 13 13 20 26 27 26 27 27 28 31 35 38 41 43 46 48
9 9 9 9 9 10 10 9 9 10 10 11 10 10 10 10 10 10 10 10 11 11 10 10 12 12 12 14 13 14 17 13 12 16 15 15 18 18 19 21 23 24 23 20 17 15 14 12 14 20 20 13 7 4 4 5 10 15 16 16 15 13 12 10 9 13 11 10 10 4 2 6 9 16 25 28 28 28 27 28 33 36 38 40 42 44 47 49
8 8 9 8 8 10 9 9 10 11 11 11 11 11 11 10 10 10 10 10 11 11 10 10 11 12 12 13 13 15 16 14 15 18 17 17 19 19 20 24 25 23 21 17 14 14 13 11 14 17 13 9 6 5 7 11 17 20 19 19 18 13 12 13 13 12 9 9 8 4 4 8 13 21 28 30 30 28 28 34 39 40 41 43 44 47 49 51
8 8 8 8 9 10 9 10 12 12 11 11 11 11 11 11 10 10 10 10 11 11 10 11 11 11 12 13 14 16 16 16 19 19 18 19 20 20 23 25 24 21 17 14 14 15 14 12 13 10 5 4 6 7 13 19 21 19 17 18 17 15 15 15 13 9 7 8 9 7 9 16 18 23 30 31 29 29 34 41 43 43 45 46 47 49 51 52
8 8 8 8 9 10 11 12 13 12 12 11 10 11 11 11 10 10 10 10 11 11 11 11 12 12 13 15 17 17 17 20 21 20 19 20 21 23 25 25 22 17 14 14 15 15 13 13 13 10 8 9 12 15 17 20 20 19 18 17 17 18 19 15 11 10 9 11 14 11 13 20 22 26 32 31 28 32 41 47 47 47 47 47 49 51 52 54
8 9 10 9 8 10 12 12 12 12 12 11 11 11 11 11 11 10 10 10 11 12 12 11 13 14 15 18 19 19 21 22 22 20 20 22 23 24 24 22 18 14 13 15 14 13 14 14 12 12 14 15 17 17 16 15 18 19 20 20 19 16 14 12 10 11 11 11 13 12 15 21 26 31 33 31 32 40 47 50 50 50 49 50 52 52 53 54
10 10 11 10 9 10 11 12 12 12 13 12 11 12 11 12 12 11 11 11 11 12 13 13 14 16 18 20 21 22 24 24 23 22 23 24 24 23 22 19 14 13 14 14 13 14 15 13 12 14 17 17 16 15 15 16 19 20 23 23 16 8 8 11 12 12 12 11 12 16 21 25 30 35 35 34 38 47 51 52 52 52 52 53 53 52 53 53
11 10 11 11 11 11 12 12 13 13 13 12 12 12 12 12 12 12 12 12 12 13 14 15 16 18 19 20 21 23 24 24 24 24 25 25 23 21 20 16 13 14 14 13 13 15 14 13 14 17 18 17 14 15 18 19 20 23 23 18 8 5 10 14 12 12 13 13 15 20 25 29 34 37 35 37 44 51 53 53 53 53 53 52 51 51 52 52
11 10 10 11 12 12 12 13 13 13 12 12 12 12 13 13 13 13 13 12 13 14 15 16 17 19 20 21 21 22 22 22 23 24 24 23 21 20 17 15 13 13 12 13 14 15 15 15 15 17 19 17 14 15 17 19 22 22 16 10 8 12 17 16 13 13 14 17 20 25 30 35 37 36 35 42 50 54 54 54 54 52 51 50 51 51 52 53
11 12 12 12 12 12 13 13 13 12 12 12 13 13 13 13 14 14 14 13 14 15 17 18 18 19 20 20 21 21 21 21 21 22 22 21 19 17 15 13 12 11 12 14 15 14 15 16 16 18 19 17 16 17 18 19 18 13 10 12 16 19 21 19 16 13 15 21 26 30 36 39 36 35 41 50 54 55 55 54 53 51 50 51 52 53 54 54
12 13 12 12 12 12 12 12 12 12 12 13 14 14 14 14 15 15 15 15 16 17 18 19 19 20 20 20 20 21 21 21 20 20 19 18 16 14 13 11 10 11 13 14 14 15 15 17 18 17 17 18 18 20 21 18 10 6 12 20 21 21 22 20 16 15 18 24 30 35 38 36 34 40 50 55 56 56 55 53 52 52 52 52 53 53 53 52
Wind_Direction
128 128 130 131 129 126 123 120 114 107 100 91 82 71 61 51 44 38 31 25 20 17 6 354 343 335 328 320 313 308 306 302 297 290 284 278 271 265 262 264 263 263 266 272 277 279 277 275 274 273 271 270 266 263 261 260 260 258 257 255 258 263 267 271 272 270 269 271 272 271 269 270 275 281 285 286 287 287 284 282 281 280 277 275 275 274 273 272
121 121 122 124 124 125 123 120 113 104 95 84 74 62 53 43 36 30 22 17 15 11 1 351 342 334 327 320 317 314 311 304 298 292 284 278 271 265 264 265 267 268 268 272 276 276 275 272 271 272 273 272 271 268 266 265 264 263 262 262 265 269 272 274 272 269 269 272 275 275 274 275 279 282 284 285 286 284 283 285 282 278 277 275 274 273 272 270
113 113 113 116 117 118 116 112 106 100 93 81 69 57 46 37 31 26 21 17 13 9 4 356 350 342 334 327 321 319 317 311 304 296 286 278 272 268 267 266 266 268 269 271 274 274 272 269 268 267 270 272 271 271 270 269 268 266 265 267 271 272 272 272 270 269 271 274 277 277 277 278 280 280 281 282 281 282 286 283 275 273 274 273 272 271 269 268
105 107 109 111 112 110 105 100 96 89 80 72 63 53 43 34 27 22 18 13 7 3 359 354 349 344 338 332 326 321 318 314 307 298 290 284 278 274 270 267 266 267 269 272 272 271 268 266 266 266 269 272 272 272 272 272 270 267 267 271 275 274 272 272 270 271 273 275 276 278 278 279 279 279 281 281 282 288 288 275 271 273 272 270 268 266 267 268
102 104 106 108 108 105 101 96 86 74 59 51 45 38 30 23 16 11 8 3 359 355 351 348 343 339 336 332 327 321 316 313 307 299 293 289 283 278 275 271 268 267 267 269 270 269 267 265 265 266 268 269 270 269 270 271 270 270 271 274 275 275 273 271 270 271 272 273 275 276 278 278 279 279 280 282 286 291 281 271 274 277 272 268 265 265 268 272
104 105 105 107 106 102 98 89 71 53 38 27 22 19 13 10 5 360 355 350 348 344 341 339 336 333 330 328 325 320 314 307 301 297 293 290 285 279 276 273 270 268 267 267 268 268 267 266 266 266 266 266 266 267 268 268 268 270 273 273 273 273 272 270 269 269 269 271 273 275 276 276 275 276 279 284 287 283 275 275 280 278 271 267 266 268 272 274
115 114 113 111 108 99 78 48 24 11 3 1 359 358 355 352 347 343 339 337 334 332 330 328 327 326 324 322 320 317 311 304 299 295 292 289 285 281 276 273 271 268 268 268 266 265 265 266 266 265 265 266 265 266 265 265 266 269 270 271 270 269 269 269 268 268 270 271 273 275 275 273 272 276 282 285 284 281 280 282 279 271 265 266 270 273 276 278
140 143 155 155 157 333 342 333 333 328 326 326 324 325 325 324 323 323 324 324 323 322 322 321 320 319 319 317 314 313 309 303 300 296 293 288 284 281 277 272 269 267 267 266 263 262 262 264 264 264 264 265 265 265 264 266 268 268 268 269 269 268 269 268 267 270 273 274 275 276 275 274 275 280 286 287 287 287 285 277 266 261 263 268 273 276 279 280
203 224 254 265 272 283 295 302 305 304 302 300 299 301 302 302 303 307 311 312 312 313 314 313 313 313 314 313 312 311 305 300 297 294 291 288 284 280 277 273 270 270 268 265 262 259 260 262 263 264 264 264 264 265 265 266 267 267 267 268 269 269 268 267 269 273 275 275 275 275 275 275 277 281 289 292 292 289 279 268 261 263 265 268 274 279 281 282
237 246 262 269 274 280 284 287 290 290 289 290 291 293 292 291 295 299 303 304 304 305 305 304 305 307 309 310 310 308 301 297 296 293 289 286 283 278 275 273 272 272 269 265 261 257 258 261 264 266 267 266 265 265 265 264 265 266 267 268 270 270 268 270 274 276 276 275 274 274 275 276 278 281 288 291 288 280 270 265 265 266 266 269 278 284 285 285
249 255 261 267 273 276 279 281 282 282 279 279 282 283 283 285 289 294 297 299 299 298 298 298 301 303 307 308 309 305 299 297 296 292 288 283 279 275 273 272 272 271 269 266 262 258 258 260 265 268 268 267 266 266 265 264 264 266 268 271 272 270 269 273 277 278 277 276 273 274 277 278 279 281 285 286 279 270 263 264 268 268 268 274 284 289 289 288
266 268 269 271 273 275 278 278 278 278 274 272 272 273 275 279 286 290 293 294 295 294 293 295 298 301 304 306 305 303 300 299 296 290 284 280 276 273 271 271 271 269 266 265 264 262 261 261 266 269 269 268 268 268 267 267 267 269 272 273 273 270 271 276 279 278 276 275 273 276 280 279 278 281 286 284 272 263 263 267 270 270 271 278 287 291 291 289
280 279 278 278 278 279 279 278 277 275 272 271 271 273 277 282 286 289 291 292 293 293 292 293 297 300 302 304 304 302 300 298 295 287 279 276 275 273 272 272 270 269 267 266 265 265 264 264 267 270 271 270 269 269 269 270 271 274 276 276 276 275 277 280 282 280 277 274 274 276 278 277 281 286 287 279 268 266 270 271 269 270 273 279 287 292 291 289
280 280 281 281 281 281 280 278 277 276 275 275 277 280 284 288 289 290 291 291 292 292 293 294 296 300 302 304 304 301 300 297 292 285 279 276 275 274 273 271 269 268 267 266 265 265 265 266 269 271 272 272 271 271 271 272 274 278 280 279 279 279 282 285 285 284 282 278 274 275 277 279 283 285 282 274 271 274 276 273 270 271 274 281 289 292 290 286
278 279 280 282 283 284 283 284 284 284 284 285 287 289 292 294 295 296 296 294 294 294 294 296 297 301 303 304 303 301 300 296 289 283 278 275 275 275 275 273 270 268 267 265 266 267 267 268 269 271 272 273 275 275 275 276 278 281 281 280 280 281 284 285 284 288 290 283 277 276 278 281 282 282 282 281 279 279 278 274 271 271 275 284 289 291 288 282
284 284 285 286 288 291 293 295 297 298 298 299 298 299 299 300 300 301 300 300 300 298 298 299 300 303 304 303 302 302 302 299 292 284 278 275 275 277 277 276 274 270 269 268 268 268 270 270 270 272 273 275 275 277 280 280 281 283 282 282 284 284 285 283 283 291 294 288 281 277 276 280 284 285 284 284 283 282 278 273 270 272 278 285 288 288 284 277
286 286 287 288 292 296 297 299 301 301 305 308 309 310 309 307 307 305 303 303 302 301 301 300 301 304 304 303 304 303 303 302 296 287 280 277 276 279 280 280 279 276 274 273 272 272 273 273 273 273 274 274 276 283 285 283 284 287 286 286 285 284 283 284 287 293 295 290 284 280 279 282 286 285 283 280 280 278 274 271 271 275 280 286 288 285 278 272
285 284 285 289 292 295 300 304 305 306 310 313 314 315 315 314 312 310 306 304 303 303 303 301 304 306 305 306 307 304 302 299 294 288 283 280 279 281 282 282 282 280 280 278 278 278 276 276 277 275 275 278 281 284 283 283 288 288 286 285 284 283 282 284 290 294 294 291 286 283 284 285 284 282 280 278 276 274 274 274 276 280 284 287 285 278 271 268
283 284 285 292 298 303 310 313 313 313 312 312 312 312 313 314 313 311 308 308 307 308 308 307 309 307 304 306 307 305 301 298 294 290 286 284 282 282 283 281 281 281 282 282 281 279 279 279 278 278 283 287 285 283 283 285 287 286 285 285 284 283 282 286 291 293 293 290 287 286 285 285 283 280 279 279 278 277 277 280 283 286 288 285 279 271 266 264
280 282 290 302 307 311 314 312 309 307 306 305 305 306 307 310 311 310 308 308 309 310 310 308 306 305 304 306 308 305 302 298 297 295 292 289 286 284 284 282 282 282 282 285 284 282 281 279 281 286 291 289 284 283 283 284 285 286 286 285 283 283 286 291 293 292 292 290 288 288 286 285 284 281 280 280 281 281 282 284 286 286 284 278 271 266 263 262
286 291 301 305 305 307 308 309 310 310 311 311 311 313 316 318 318 316 313 311 310 309 308 306 305 306 306 309 311 309 306 303 300 301 299 295 292 289 287 285 285 284 285 287 287 286 284 284 288 291 289 287 284 283 282 282 284 288 288 287 285 286 291 295 294 292 292 289 289 290 289 287 286 284 282 280 281 284 285 286 284 280 274 269 264 261 261 261
296 297 301 300 303 308 314 324 332 336 340 344 344 343 338 332 326 319 314 312 312 310 308 307 308 310 312 316 319 319 322 320 310 308 307 303 299 295 293 291 288 288 288 288 288 288 288 289 291 290 287 287 286 284 284 285 286 288 290 289 289 293 296 297 295 295 296 292 293 294 292 290 288 284 282 282 283 286 286 283 277 270 263 259 258 257 258 259
285 296 305 312 321 331 342 352 357 357 1 3 1 356 348 339 329 320 315 311 310 311 312 313 315 320 326 329 330 329 331 332 326 319 317 314 309 305 300 296 293 292 291 290 289 290 290 291 289 288 288 288 286 287 287 288 288 290 292 291 294 298 299 297 298 301 300 297 296 296 294 290 287 285 283 284 285 284 281 275 265 257 253 251 251 252 252 253
296 323 344 353 358 0 357 356 355 354 355 354 351 349 346 343 336 328 323 317 310 313 324 331 333 336 340 336 331 329 328 330 331 328 325 321 316 311 306 303 300 296 294 292 291 290 290 289 288 289 288 287 289 290 291 291 291 292 294 295 297 300 300 300 303 304 302 299 298 300 297 287 283 285 285 284 282 278 272 264 256 248 244 244 245 246 247 248
22 14 11 6 5 357 346 342 343 345 345 344 342 341 343 343 341 337 333 326 313 329 343 343 344 346 346 341 335 332 328 324 327 327 323 322 320 318 314 309 305 302 299 296 295 294 292 290 290 291 289 290 292 292 294 294 295 299 299 299 300 303 304 303 305 305 304 303 304 309 306 286 283 284 283 282 276 268 262 256 249 243 241 241 242 243 244 245
19 11 4 359 353 344 338 334 336 337 335 336 335 337 340 341 343 342 338 336 325 347 347 347 351 346 340 339 336 335 331 324 326 326 324 324 324 322 319 313 308 307 304 300 301 300 297 294 294 293 293 294 295 295 298 298 301 307 306 305 305 306 307 305 306 305 302 300 298 297 285 273 284 282 278 277 269 259 253 248 244 241 240 241 242 243 243 244
353 354 351 348 344 340 336 332 332 330 329 330 331 334 338 338 342 341 339 357 5 341 344 347 348 343 338 336 336 338 338 331 329 329 328 327 325 323 321 316 312 311 308 307 309 304 300 300 300 300 300 300 300 301 301 303 309 312 312 311 309 309 309 308 307 302 296 293 292 288 270 264 278 276 271 267 256 249 245 243 243 240 241 242 243 245 245 246
337 341 341 340 339 336 332 329 327 326 326 326 328 333 336 337 340 337 335 48 356 337 338 340 340 339 337 336 336 341 343 337 333 330 330 329 327 326 322 317 314 315 314 312 314 311 307 309 308 309 310 312 314 314 311 314 319 317 316 314 312 313 310 307 303 298 296 293 293 290 260 251 269 260 260 255 243 244 243 242 243 242 243 243 244 246 246 247
352 346 341 336 333 329 325 323 322 323 322 323 328 332 334 336 335 331 326 121 336 333 335 336 335 336 338 338 341 344 343 340 334 330 331 330 328 327 326 323 321 322 320 318 326 324 315 314 313 315 324 329 327 322 314 320 324 320 317 317 316 314 308 305 300 294 295 284 284 291 234 217 268 257 249 247 242 247 248 244 245 245 245 245 245 247 248 249
18 3 351 340 333 327 322 320 320 322 321 324 330 332 334 335 333 336 70 327 330 333 335 335 336 338 342 343 344 344 342 341 337 334 334 333 332 334 335 333 330 329 323 321 333 328 319 315 313 323 341 338 328 318 315 322 323 319 320 321 318 314 308 302 295 291 300 272 259 287 215 212 266 276 258 253 254 259 254 249 250 249 248 248 248 249 250 252
18 5 354 343 336 329 324 322 322 323 324 328 332 333 334 335 338 12 71 325 330 334 335 339 341 342 346 348 347 346 344 341 339 338 338 338 341 342 344 346 347 347 334 332 339 337 330 321 314 344 346 338 327 315 317 320 321 323 326 325 320 317 313 300 291 270 266 269 236 15 250 221 234 278 278 261 260 266 262 256 256 256 255 253 252 253 254 255
7 357 349 342 338 334 332 330 328 327 330 333 334 334 337 339 356 23 349 327 331 333 337 342 345 347 352 352 349 347 347 345 344 345 346 349 353 356 2 8 11 13 357 346 349 351 346 337 325 339 339 337 325 319 323 324 328 328 325 327 328 332 340 318 284 219 241 260 262 308 310 247 251 270 278 273 266 262 261 262 260 259 259 257 257 257 257 258
356 350 346 343 342 341 339 335 333 334 337 338 338 339 343 355 15 356 346 341 339 338 341 345 348 352 356 353 350 348 350 351 351 352 355 359 3 6 11 17 18 15 2 351 353 355 356 356 339 336 335 333 326 327 332 330 327 324 321 334 354 0 0 308 277 291 284 276 285 293 296 279 270 274 277 279 274 260 257 262 262 260 258 257 258 258 259 261
349 346 346 345 346 343 340 338 341 345 346 346 345 345 351 14 2 347 349 350 346 344 346 348 351 357 359 355 353 353 356 357 355 358 4 8 9 10 14 20 14 8 2 359 357 355 354 334 330 333 331 329 329 334 335 326 326 323 316 332 332 319 274 268 257 255 285 290 292 288 280 266 273 284 284 283 283 275 267 266 265 263 260 258 259 260 261 264
344 343 345 347 346 343 343 347 351 352 352 352 350 352 4 18 359 352 352 349 350 353 352 352 355 1 4 1 359 359 1 0 360 4 10 10 9 11 15 15 6 2 3 2 355 351 335 315 326 329 327 327 329 334 330 326 327 318 307 319 320 308 268 262 273 276 286 305 300 265 241 259 274 284 288 290 292 290 283 277 270 266 265 264 263 263 264 266
340 340 344 345 345 347 350 352 354 355 356 356 355 360 16 21 3 358 355 351 352 354 356 358 358 1 8 9 6 4 2 2 5 8 9 8 10 11 10 6 2 360 0 358 353 345 319 316 328 329 327 329 327 328 327 325 322 308 310 318 316 309 289 273 280 289 297 313 298 231 242 275 286 291 293 294 295 294 290 286 281 277 274 270 267 267 268 270
336 338 342 344 348 352 352 353 357 358 356 357 1 10 20 19 7 1 357 355 354 356 359 2 2 4 7 9 9 6 3 5 9 7 6 8 7 4 1 0 358 354 353 352 348 341 318 317 331 336 331 332 329 326 325 323 319 312 315 317 316 312 297 275 285 316 340 304 274 263 259 279 292 291 291 294 299 302 301 296 291 286 281 275 271 270 271 273
333 337 340 346 352 353 353 356 358 356 355 359 6 17 20 15 8 4 1 0 1 1 2 6 7 6 5 6 7 6 5 8 10 5 6 9 2 356 354 353 352 348 346 345 342 339 325 317 329 341 336 333 329 325 324 321 317 317 316 319 321 312 292 297 302 315 340 307 288 279 271 289 287 284 300 314 320 319 314 306 299 292 285 280 277 275 276 278
333 337 342 350 353 353 356 358 355 356 3 5 7 17 19 16 12 9 7 7 7 7 9 11 10 6 5 5 5 6 6 7 7 5 7 5 356 351 348 346 346 344 342 341 338 336 330 311 313 329 332 331 328 324 322 320 318 321 325 336 338 319 296 298 284 270 280 287 299 308 316 304 291 309 326 335 337 333 325 315 307 300 294 290 287 285 284 284
335 338 345 351 353 356 359 357 357 2 6 6 15 24 23 20 18 15 13 11 10 11 12 12 9 6 5 5 4 5 6 4 3 3 2 357 353 350 346 342 342 341 340 339 335 332 328 301 292 316 328 332 328 322 321 322 327 339 346 346 337 321 311 304 287 279 274 249 240 317 310 295 314 328 337 345 344 337 329 322 316 310 305 302 298 295 292 290
338 342 347 352 356 2 2 359 2 5 9 19 30 32 29 25 20 16 16 14 13 13 11 9 6 5 5 3 1 2 2 360 358 358 353 350 351 347 340 338 338 339 338 335 333 330 325 301 293 310 328 334 327 322 324 329 345 352 349 345 332 319 322 320 295 279 265 250 261 277 289 297 308 325 341 348 346 338 332 326 320 316 312 309 305 300 297 296
343 347 352 356 3 7 3 4 11 16 26 35 37 34 32 28 22 19 17 15 14 12 9 7 4 2 2 0 360 357 356 355 353 352 346 342 343 339 335 337 337 336 335 333 332 329 323 310 299 309 327 334 328 326 326 321 334 339 337 330 322 315 314 309 272 282 283 274 276 274 277 294 309 336 346 345 342 337 332 326 322 319 314 310 306 303 301 300
347 354 0 4 10 11 10 17 28 34 39 41 39 36 33 28 23 20 17 14 13 9 6 4 1 0 359 357 357 353 351 350 346 346 342 335 336 335 334 336 335 333 333 332 331 330 328 320 311 316 328 337 343 339 315 304 320 324 321 319 319 316 312 303 280 283 285 273 271 269 249 286 323 342 341 339 335 330 329 327 325 322 316 312 308 305 304 303
354 2 9 13 18 22 25 35 42 42 42 40 37 34 29 26 22 18 16 12 10 8 4 360 359 359 357 355 353 349 348 346 341 340 338 332 331 332 331 332 332 331 331 332 332 332 331 326 320 322 334 350 353 342 321 315 318 319 319 320 321 319 317 311 296 284 277 266 257 222 242 293 325 335 333 334 330 326 328 329 327 323 319 315 311 308 308 307
8 13 18 27 34 37 41 46 45 40 37 34 31 28 25 23 19 15 14 10 7 6 2 358 357 354 351 350 347 344 344 341 337 335 334 331 330 330 330 331 331 331 332 334 334 333 332 331 329 324 324 329 318 316 317 315 315 319 320 320 318 316 314 312 298 274 257 268 262 241 271 294 313 328 331 331 327 325 329 330 327 324 320 316 312 310 310 309
25 28 32 42 47 44 42 42 39 33 30 27 25 26 24 21 18 15 12 9 6 4 359 356 354 350 346 344 341 340 339 338 335 332 332 332 331 330 330 331 332 333 336 336 335 336 335 336 336 326 310 310 311 315 317 313 313 318 319 317 314 312 309 306 291 269 267 284 282 275 288 297 308 325 331 329 325 326 329 329 327 324 320 315 313 312 311 311
42 46 47 50 47 39 34 33 31 27 27 27 25 25 24 20 17 13 9 6 3 1 358 354 350 347 343 340 339 338 337 336 334 333 333 332 331 331 331 332 333 336 338 337 338 340 337 336 339 331 325 327 326 324 322 317 315 316 316 318 318 313 309 306 295 286 287 291 290 293 303 305 312 326 330 326 324 326 328 328 325 323 319 316 314 314 313 312
53 53 49 45 41 34 29 29 28 28 28 28 26 25 22 17 14 10 7 4 0 358 356 352 348 344 342 340 339 337 335 335 335 335 334 333 333 333 333 334 337 339 341 341 342 341 337 336 339 333 332 337 334 330 331 327 322 318 319 323 325 316 318 317 303 291 289 286 285 294 301 308 319 326 327 324 325 327 327 326 323 321 319 316 315 315 314 313
51 47 42 37 34 32 30 29 29 29 28 25 23 21 18 13 11 8 4 1 357 356 354 349 346 343 341 339 337 335 335 336 335 335 334 334 334 335 335 337 339 340 341 343 343 342 338 338 339 334 335 344 343 337 338 333 325 322 324 329 331 320 328 327 308 289 284 280 284 294 303 314 323 324 323 323 325 326 325 323 321 320 318 316 316 315 315 315
42 38 36 35 33 32 32 30 29 27 24 22 21 19 14 11 9 6 3 359 355 353 350 346 344 342 340 338 336 335 336 335 333 332 332 333 334 335 335 337 339 339 342 344 343 343 342 340 340 335 336 347 352 343 339 332 324 325 333 344 339 324 327 330 316 296 288 289 297 307 314 320 322 321 321 324 324 324 323 321 321 319 318 318 318 318 318 319
37 36 37 36 34 32 32 31 28 25 21 22 22 19 14 11 8 5 2 358 355 351 348 346 345 344 341 339 338 338 338 337 334 332 331 331 333 335 333 334 338 340 342 344 343 345 345 341 341 337 334 344 351 344 340 334 327 331 350 345 332 324 325 327 321 310 307 308 312 317 320 321 320 320 322 323 323 323 322 321 322 321 321 321 322 321 322 323
38 38 40 39 36 35 34 32 28 24 23 23 22 19 15 11 8 5 2 358 355 352 349 348 347 346 344 342 342 341 340 339 337 335 334 333 333 334 332 332 339 342 343 347 347 348 348 343 344 341 332 338 350 346 341 341 339 343 342 333 326 324 324 323 319 318 319 318 318 320 319 318 319 320 322 323 323 323 323 324 324 324 323 324 324 324 325 325